Location: Aciu?a
(46.2833°N, 22.4500°E)
Time: 06:09:09
(UTC+00:00)

OE (NEXTSAT) - Pass Details

Date: 25 October 2021
Orbit: 419 x 427 km, 46.0° (Epoch: 04 December)

Event Time Altitude Azimuth Distance (km) Brightness Sun altitude
Rises 16:48:11 0° 259° (W) 2,378 9.9 -14.7°
Reaches altitude 10° 16:50:18 10° 258° (WSW) 1,511 8.4 -15.1°
Maximum altitude 16:53:43 80° 172° (S) 434 4.2 -15.7°
Enters shadow 16:54:52 39° 91° (E) 652 4.7 -15.9°
